Location: Boiro
(42.6475°N, 8.8834°W)
Time: 17:26:58
(UTC+01:00)

Transit 2A Rocket - Pass Details

Date: 09 December 2021
Orbit: 584 x 918 km, 66.7° (Epoch: 19 January)

Event Time Altitude Azimuth Distance (km) Brightness Sun altitude
Rises 15:52:09 0° 333° (NNW) 3,560 8.2 16.5°
Reaches altitude 10° 15:54:53 10° 340° (NNW) 2,602 7.5 16.3°
Maximum altitude 16:00:37 42° 50° (NE) 1,239 5.8 15.6°
Drops below altitude 10° 16:06:02 10° 121° (ESE) 2,449 7.6 15.0°
Sets 16:08:31 0° 128° (SE) 3,331 8.3 14.8°
